Regional Weather Roundup
Issued by NWS Sioux Falls, SD

Home | Current Version | Previous Version | Text Only | Print | Product List | Glossary On
Versions: 1 2 3 4 5 6 7 8 9 10 11 12 13 14 15 16 17 18 19 20 21 22 23 24 25 26 27 28 29 30 31 32 33 34 35 36 37 38 39 40 41 42 43 44 45 46 47 48 49 50
000
ASUS43 KFSD 290410
RWRFSD

WEATHER ROUNDUP FOR SE SOUTH DAKOTA/SW MINNESOTA/NW IOWA
NATIONAL WEATHER SERVICE SIOUX FALLS SD
1000 PM CST WED JAN 28 2015

NOTE: "FAIR" INDICATES FEW OR NO CLOUDS BELOW 12,000 FEET WITH NO
SIGNIFICANT WEATHER AND OR OBSTRUCTIONS TO VISIBILITY.


SDZ038>040-050-052>070-290500-
SOUTHEAST SOUTH DAKOTA

CITY           SKY/WX    TMP DP  RH WIND       PRES   REMARKS
CHAMBERLAIN    CLOUDY    34  30  85 NW20G30   30.14R WCI  22
HURON          CLOUDY    33  28  81 NW24G36   30.06R WCI  20
MADISON        CLOUDY    32  32 100 N23G39    29.95R WCI  19
MITCHELL       CLOUDY    35  30  82 NW28G40   30.06R WCI  22
SIOUX FALLS    CLOUDY    34  31  88 N24G38    29.94R WCI  21
WINNER         CLOUDY    37  29  72 NW26G32   30.16R
YANKTON        CLOUDY    36  30  80 NW25G32   30.01R
$$

MNZ071-072-080-081-089-090-097-098-290500-
SOUTHWEST MINNESOTA

CITY           SKY/WX    TMP DP  RH WIND       PRES   REMARKS
FAIRMONT       CLOUDY    34  28  80 NW15      29.80R WCI  24
JACKSON        CLOUDY    34  32  93 NW15G28   29.83R FOG     WCI  24
LUVERNE        CLOUDY    36  34  93 N18G24    29.90R FOG
MARSHALL       CLOUDY    34  28  80 N23       29.91R WCI  22
MONTEVIDEO     CLOUDY    34  34 100 N21G26    29.91R FOG     WCI  22
PIPESTONE      CLOUDY    34  32  93 N25G33    29.89R WCI  21
REDWOOD FALLS  CLOUDY    33  32  96 NW8       29.88R FOG     WCI  26
TRACY          CLOUDY    33  33  98 NW17      29.89R FOG     WCI  22
WINDOM         CLOUDY    34  34 100 NW17      29.85R FOG     WCI  23
WORTHINGTON    CLOUDY    34  30  86 N23G31    29.86R WCI  22
$$

IAZ001>003-012>014-020>022-031-032-NEZ013-014-SDZ071-290500-
NORTHWEST IOWA

CITY           SKY/WX    TMP DP  RH WIND       PRES   REMARKS
CHEROKEE       CLOUDY    36  35  96 N12       29.85R FOG
DENISON        CLOUDY    39  37  93 N15       29.81R
ESTHERVILLE    CLOUDY    32  31  96 NW16      29.81R FOG     WCI  21
LE MARS        CLOUDY    39  36  87 NW20G25   29.90R
ORANGE CITY    CLOUDY    37  34  87 NW14      29.88R FOG
SHELDON        CLOUDY    36  36 100 NW21G26   29.86R
SIOUX CITY     CLOUDY    42  36  79 NW29G41   29.89R
SPENCER        CLOUDY    35  32  88 NW15      29.83R FOG     WCI  25
STORM LAKE     CLOUDY    36  34  93 N20       29.82R FOG
$$

ABBREVIATIONS USED IN REMARKS
   TC - TEMPERATURE IN CELSIUS
  WCI - WIND CHILL INDEX
   HX - HEAT INDEX
  VSB - VISIBILITY




USA.gov is the U.S. government's official web portal to all federal, state and local government web resources and services.